Change the Weather History Date:

Saturday, June 1, 2013

  Actual Average Record
Temperature  
Mean Temperature 56 °F 55 °F  
Max Temperature 63 °F 60 °F 80 °F (1970)
Min Temperature 48 °F 49 °F 36 °F (1920)
Degree Days  
Heating Degree Days 9 10  
Month to date heating degree days 9 10  
Since 1 June heating degree days 9 10  
Since 1 July heating degree days 4277 4570  
Cooling Degree Days 0 0  
Month to date cooling degree days 0 0  
Year to date cooling degree days 4 0  
Since 1 June cooling degree days 0 0  
Growing Degree Days 5 (Base 50)    
Moisture  
Dew Point 52 °F    
Average Humidity 89    
Maximum Humidity 100    
Minimum Humidity 67    
Precipitation  
Precipitation 0.01 in 0.10 in 0.65 in (1993)
Month to date precipitation 0.01 0.10  
Year to date precipitation 16.76 34.27  
Sea Level Pressure  
Sea Level Pressure 30.19 in    
Wind  
Wind Speed 6 mph (NNW)    
Max Wind Speed 13 mph    
Max Gust Speed 22 mph    
Visibility 9 miles    
Events      
T = Trace of Precipitation, MM = Missing Value Source: NWS Daily Summary

Daily Weather History Graph

Daily Weather History Graph

Search for Another Location

Airport or City:

Trip Planner

Search our weather history database for the weather conditions in past years. The results will help you decide how hot, cold, wet, or windy it might be!

Date:

Astronomy

Jun. 01, 2013 Rise Set
Actual Time 5:39 AM PDT 8:51 PM PDT
Civil Twilight 5:04 AM PDT 9:26 PM PDT
Nautical Twilight 4:19 AM PDT 10:11 PM PDT
Astronomical Twilight 3:24 AM PDT 11:06 PM PDT
Moon 1:49 AM PDT (6/1) 2:16 PM PDT (6/1)
Length of Visible Light 16h 21m
Length of Day
15h 12m
Last Quarter, 40% of the Moon is Illuminated
Jun 1
Last Quarter
Jun 8
New
Jun 16
First Quarter
Jun 23
Full
Jun 29
Last Quarter

Hourly Weather History & Observations

Time (PDT) Temp. Dew Point Humidity Pressure Visibility Wind Dir Wind Speed Gust Speed Precip Events Conditions
12:15 AM 53.6 °F 51.8 °F 94% 30.28 in 10.0 mi NNW 3.5 mph - N/A   Clear
12:35 AM 51.8 °F 50.0 °F 94% 30.28 in 10.0 mi Calm Calm - N/A   Clear
12:55 AM 50.0 °F 48.2 °F 94% 30.28 in 10.0 mi Calm Calm - N/A   Partly Cloudy
1:15 AM 48.2 °F 48.2 °F 100% 30.27 in 10.0 mi SE 3.5 mph - N/A   Mostly Cloudy
1:35 AM 48.2 °F 48.2 °F 100% 30.28 in 10.0 mi SE 3.5 mph - N/A   Overcast
1:55 AM 50.0 °F 50.0 °F 100% 30.28 in 10.0 mi SE 3.5 mph - N/A   Overcast
2:15 AM 51.8 °F 50.0 °F 94% 30.28 in 10.0 mi SSE 3.5 mph - N/A   Overcast
2:35 AM 51.8 °F 50.0 °F 94% 30.28 in 10.0 mi SSE 3.5 mph - N/A   Overcast
2:55 AM 51.8 °F 51.8 °F 100% 30.27 in 10.0 mi Calm Calm - N/A   Overcast
3:15 AM 51.8 °F 51.8 °F 100% 30.26 in 10.0 mi Calm Calm - N/A   Overcast
3:35 AM 53.6 °F 51.8 °F 94% 30.26 in 10.0 mi NE 4.6 mph - N/A   Overcast
3:55 AM 51.8 °F 50.0 °F 94% 30.26 in 10.0 mi Calm Calm - N/A   Overcast
4:15 AM 51.8 °F 51.8 °F 100% 30.25 in 10.0 mi Calm Calm - N/A   Overcast
4:35 AM 51.8 °F 51.8 °F 100% 30.26 in 10.0 mi Calm Calm - N/A   Overcast
4:55 AM 51.8 °F 51.8 °F 100% 30.25 in 10.0 mi ESE 4.6 mph - N/A   Overcast
5:15 AM 50.0 °F 50.0 °F 100% 30.25 in 10.0 mi ESE 4.6 mph - N/A   Overcast
5:35 AM 48.2 °F 48.2 °F 100% 30.25 in 10.0 mi SSE 5.8 mph - N/A   Overcast
5:55 AM 48.2 °F 48.2 °F 100% 30.25 in 10.0 mi Calm Calm - N/A   Overcast
6:15 AM 48.2 °F 48.2 °F 100% 30.24 in 10.0 mi SE 4.6 mph - N/A   Overcast
6:35 AM 48.2 °F 48.2 °F 100% 30.24 in 9.0 mi SE 6.9 mph - N/A   Overcast
6:55 AM 48.2 °F 48.2 °F 100% 30.24 in 8.0 mi South 5.8 mph - N/A   Overcast
7:15 AM 48.2 °F 46.4 °F 93% 30.24 in 0.8 mi SE 4.6 mph - N/A   Overcast
7:35 AM 48.2 °F 48.2 °F 100% 30.24 in 2.5 mi SSE 3.5 mph - N/A   Overcast
7:55 AM 48.2 °F 48.2 °F 100% 30.24 in 10.0 mi Calm Calm - N/A   Overcast
8:15 AM 50.0 °F 48.2 °F 94% 30.23 in 10.0 mi Calm Calm - N/A   Mostly Cloudy
8:35 AM 51.8 °F 50.0 °F 94% 30.23 in 10.0 mi Calm Calm - N/A   Mostly Cloudy
8:55 AM 51.8 °F 50.0 °F 94% 30.23 in 10.0 mi North 4.6 mph - N/A   Scattered Clouds
9:15 AM 53.6 °F 51.8 °F 94% 30.23 in 10.0 mi Calm Calm - N/A   Clear
9:35 AM 55.4 °F 51.8 °F 88% 30.23 in 10.0 mi Calm Calm - N/A   Clear
9:55 AM 55.4 °F 51.8 °F 88% 30.22 in 10.0 mi Calm Calm - N/A   Clear
10:15 AM 57.2 °F 53.6 °F 88% 30.21 in 10.0 mi Calm Calm - N/A   Clear
10:35 AM 57.2 °F 53.6 °F 88% 30.21 in 10.0 mi WNW 6.9 mph - N/A   Clear
10:55 AM 57.2 °F 53.6 °F 88% 30.21 in 10.0 mi NW 6.9 mph - N/A   Clear
11:15 AM 57.2 °F 53.6 °F 88% 30.20 in 10.0 mi WNW 6.9 mph - N/A   Clear
11:35 AM 59.0 °F 55.4 °F 88% 30.19 in 10.0 mi West 12.7 mph - N/A   Clear
11:55 AM 57.2 °F 53.6 °F 88% 30.19 in 10.0 mi NW 9.2 mph - N/A   Clear
12:15 PM 57.2 °F 53.6 °F 88% 30.19 in 10.0 mi WNW 6.9 mph - N/A   Mostly Cloudy
12:35 PM 59.0 °F 55.4 °F 88% 30.19 in 10.0 mi NW 9.2 mph - N/A   Mostly Cloudy
12:55 PM 59.0 °F 53.6 °F 82% 30.18 in 10.0 mi NNW 5.8 mph - N/A   Mostly Cloudy
1:15 PM 62.6 °F 53.6 °F 72% 30.17 in 10.0 mi NNW 9.2 mph - N/A   Mostly Cloudy
1:35 PM 62.6 °F 53.6 °F 72% 30.18 in 10.0 mi NNW 11.5 mph - N/A   Mostly Cloudy
1:55 PM 60.8 °F 55.4 °F 82% 30.18 in 10.0 mi NW 11.5 mph - N/A   Mostly Cloudy
2:15 PM 60.8 °F 55.4 °F 82% 30.17 in 10.0 mi NNW 8.1 mph - N/A   Scattered Clouds
2:35 PM 62.6 °F 53.6 °F 72% 30.17 in 10.0 mi NNW 10.4 mph - N/A   Scattered Clouds
2:55 PM 62.6 °F 53.6 °F 72% 30.17 in 10.0 mi NNW 11.5 mph - N/A   Scattered Clouds
3:15 PM 62.6 °F 53.6 °F 72% 30.16 in 10.0 mi NW 11.5 mph - N/A   Clear
3:35 PM 62.6 °F 51.8 °F 68% 30.16 in 10.0 mi NNW 11.5 mph - N/A   Clear
3:55 PM 62.6 °F 51.8 °F 68% 30.16 in 10.0 mi NNW 11.5 mph - N/A   Clear
4:15 PM 62.6 °F 51.8 °F 68% 30.16 in 10.0 mi NNW 12.7 mph 18.4 mph N/A   Clear
4:35 PM 62.6 °F 51.8 °F 68% 30.15 in 10.0 mi North 13.8 mph 21.9 mph N/A   Clear
4:55 PM 62.6 °F 51.8 °F 68% 30.14 in 10.0 mi North 12.7 mph - N/A   Clear
5:15 PM 62.6 °F 53.6 °F 72% 30.14 in 10.0 mi NNW 11.5 mph - N/A   Clear
5:35 PM 60.8 °F 51.8 °F 72% 30.14 in 10.0 mi NNW 13.8 mph - N/A   Clear
5:55 PM 60.8 °F 51.8 °F 72% 30.13 in 10.0 mi North 12.7 mph - N/A   Clear
6:15 PM 60.8 °F 51.8 °F 72% 30.13 in 10.0 mi NNW 12.7 mph - N/A   Clear
6:35 PM 60.8 °F 51.8 °F 72% 30.13 in 10.0 mi NNW 12.7 mph - N/A   Clear
6:55 PM 60.8 °F 53.6 °F 77% 30.13 in 10.0 mi NNW 10.4 mph - N/A   Partly Cloudy
7:15 PM 59.0 °F 53.6 °F 82% 30.12 in 10.0 mi NNW 8.1 mph - N/A   Partly Cloudy
7:35 PM 57.2 °F 53.6 °F 88% 30.12 in 10.0 mi NNW 9.2 mph - N/A   Partly Cloudy
7:55 PM 57.2 °F 53.6 °F 88% 30.12 in 10.0 mi NNW 6.9 mph - N/A   Mostly Cloudy
8:15 PM 57.2 °F 53.6 °F 88% 30.12 in 10.0 mi North 8.1 mph - N/A   Overcast
8:35 PM 57.2 °F 53.6 °F 88% 30.11 in 10.0 mi North 6.9 mph - N/A   Overcast
8:55 PM 57.2 °F 53.6 °F 88% 30.11 in 10.0 mi NNW 5.8 mph - N/A   Overcast
9:15 PM 57.2 °F 53.6 °F 88% 30.12 in 10.0 mi NNW 9.2 mph - N/A   Overcast
9:35 PM 55.4 °F 53.6 °F 94% 30.12 in 7.0 mi NNW 6.9 mph - N/A   Overcast
9:55 PM 55.4 °F 53.6 °F 94% 30.13 in 7.0 mi North 5.8 mph - N/A   Overcast
10:15 PM 55.4 °F 55.4 °F 100% 30.12 in 6.0 mi North 5.8 mph - N/A   Overcast
10:35 PM 55.4 °F 55.4 °F 100% 30.12 in 9.0 mi NNW 5.8 mph - N/A   Overcast
10:55 PM 55.4 °F 55.4 °F 100% 30.12 in 2.0 mi North 3.5 mph - N/A   Overcast
11:15 PM 55.4 °F 55.4 °F 100% 30.12 in 2.0 mi North 3.5 mph - N/A   Overcast
11:35 PM 55.4 °F 55.4 °F 100% 30.12 in 2.5 mi NNW 5.8 mph - N/A   Overcast
11:55 PM 55.4 °F 55.4 °F 100% 30.11 in 2.0 mi NNW 3.5 mph - N/A   Overcast